[[{"header":{"parameterUnit":"m.s-1","parameterCategory":1,"la1":30.2991,"la2":30.254,"lo1":-89.0895,"lo2":-89.0444,"dy":0.0017,"dx":0.0017,"nx":28,"ny":28,"refTime":"2024-05-13T21:00:00:Z","depth":0,"parameterNumber":2,"parameterNumberName":"U-component_of_WINDS"},"data":[0,0,0,0,0,0,0,0,0,0,0,0,0,0,0,0,0,0,0,0,0,0,0,0,0,0,0,0,0,0,0,0,0,0,0,0,0,0,0,0,0,0,0,0,0,0,0,0,0,0,0,0,0,0,0,0,0,0,4.1488,4.1486,0,4.1264,4.1261,4.1259,4.1107,4.1106,4.1105,4.1104,4.0856,4.085,4.0845,0,0,0,0,0,0,0,0,0,0,0,0,0,4.1764,4.176,4.1488,4.1485,4.1483,4.1264,4.1261,4.1258,4.1107,4.1106,4.1105,4.1103,4.0857,4.0851,4.0844,0,0,0,0,0,0,0,0,0,0,0,0,0,4.1602,4.1759,4.1489,4.1381,4.137,4.1265,4.1261,4.1257,4.1107,4.1106,4.1104,4.1103,4.086,4.0851,4.0843,4.0822,0,0,4.0817,4.0814,0,0,0,0,0,0,0,0,4.1612,4.1592,4.14,4.1389,4.1375,4.1212,4.1267,4.111,4.1108,4.1206,4.1104,4.1102,4.0974,4.0956,4.0917,4.081,4.0799,4.0816,4.0811,4.0808,4.0805,0,0,0,0,0,0,0,4.1623,4.1601,4.1399,4.1397,4.1382,4.1337,4.1313,4.1237,4.1101,4.1198,4.1186,4.1163,4.0967,4.0926,4.091,4.0796,4.0817,4.0809,4.0804,4.0801,4.0649,4.065,0,0,0,0,0,0,4.1654,4.1611,4.1406,4.1392,4.1493,4.1334,4.1306,4.1266,4.1102,4.1075,4.1164,4.1156,4.0941,4.092,4.0901,4.0859,4.0808,4.08,4.0795,4.0648,4.065,4.0651,0,0,0,0,0,0,4.166,4.1637,4.1415,4.1498,4.1467,4.1331,4.1286,4.1262,4.1221,4.1077,4.105,4.1148,4.0939,4.0913,4.0842,4.0849,4.0796,4.0788,4.0647,4.0649,4.065,4.0781,0,0,0,0,0,0,4.1669,4.164,4.1637,4.15,4.1463,4.1367,4.1287,4.1259,4.1209,4.1196,4.1055,4.1029,4.0936,4.0855,4.0833,4.0836,4.0782,4.0646,4.0648,4.065,4.0775,4.0787,4.0797,0,0,0,0,0,4.1679,4.168,4.1637,4.1613,4.1457,4.1368,4.1346,4.1244,4.121,4.1201,4.1107,4.1034,4.0852,4.0849,4.0823,4.0824,4.0645,4.0647,4.0649,4.077,4.0785,4.0796,0,0,0,0,0,0,4.1816,4.166,4.1611,4.1569,4.1484,4.1343,4.1329,4.1263,4.1181,4.1172,4.1042,4.1011,4.0952,4.088,4.088,4.0789,4.0739,4.0736,4.084,4.0852,4.0862,4.088,4.0775,0,0,0,0,0,4.1843,4.1791,4.1654,4.1629,4.1589,4.1467,4.1425,4.1353,4.1257,4.1218,4.1119,4.1023,4.0943,4.0893,4.0812,4.0764,4.0726,4.075,4.0761,4.077,4.0769,4.0729,4.0737,4.0659,4.0659,4.0658,0,0,4.1894,4.1802,4.1777,4.1654,4.158,4.1521,4.1438,4.1381,4.1334,4.1207,4.1136,4.1059,4.0941,4.088,4.0848,4.0818,4.0782,4.0773,4.0782,4.0775,4.0733,4.074,4.0747,4.066,4.066,4.066,0,0,4.1958,4.1887,4.1856,4.1783,4.1673,4.159,4.1583,4.1451,4.1397,4.1324,4.1226,4.1163,4.1031,4.095,4.0891,4.0918,4.0845,4.0895,4.095,4.0913,4.0919,4.0924,4.0928,4.0932,4.0894,4.0894,4.0894,0,4.2035,4.1951,4.1847,4.1795,4.1741,4.1628,4.1591,4.1523,4.139,4.1351,4.1321,4.1148,4.1062,4.0977,4.0983,4.0941,4.0921,4.0911,4.0928,4.0932,4.0934,4.0937,4.0939,4.0901,4.09,4.0899,4.0899,0,4.2047,4.1989,4.1976,4.1856,4.1799,4.1755,4.1637,4.1591,4.1522,4.1441,4.1362,4.1253,4.1146,4.112,4.1051,4.1022,4.1007,4.0955,4.09,4.0951,4.095,4.095,4.091,4.0908,4.0906,4.0904,0,0,4.2194,4.2015,4.2011,4.1952,4.182,4.1769,4.1715,4.1615,4.1576,4.1485,4.1431,4.1319,4.1269,4.1202,4.1121,4.109,4.111,4.1039,4.1034,4.1053,4.1063,4.1102,4.1106,4.1061,4.1061,4.1061,4.1072,0,4.2235,4.2142,4.2045,4.1982,4.1922,4.1811,4.1763,4.1672,4.1592,4.1524,4.1431,4.1353,4.1295,4.1253,4.1217,4.1117,4.111,4.1114,4.1002,4.1,4.1034,4.1107,4.1149,4.1165,4.1071,4.1071,4.1071,0,4.2273,4.2192,4.2126,4.1994,4.1965,4.1926,4.1822,4.1761,4.1651,4.1594,4.1518,4.1433,4.1361,4.1315,4.1209,4.1214,4.1161,4.1104,4.1101,4.1085,4.1038,4.1089,4.1168,4.117,4.1071,4.1071,4.1071,0,4.2381,4.2255,4.2198,4.2151,4.1998,4.1971,4.1904,4.1793,4.1737,4.1644,4.1604,4.1502,4.1445,4.1363,4.1248,4.1227,4.1152,4.1098,4.1095,4.1098,4.1084,4.1087,4.1154,4.1055,4.1055,4.1055,4.1055,0,4.2437,4.2399,4.2245,4.2209,4.216,4.2044,4.1996,4.1918,4.182,4.176,4.1655,4.1599,4.1453,4.1377,4.1285,4.1207,4.1183,4.1129,4.1104,4.1137,4.1144,4.1099,4.1094,4.1056,4.1056,4.1056,4.1055,0,4.255,4.2446,4.2375,4.2236,4.2199,4.2169,4.2044,4.2001,4.1914,4.184,4.1815,4.1676,4.158,4.1458,4.1322,4.126,4.1191,4.1155,4.1231,4.1216,4.1219,4.1219,4.1258,4.1254,4.1163,4.1164,4.1165,0,4.2592,4.2561,4.2418,4.2374,4.2312,4.2242,4.2185,4.2066,4.2009,4.1879,4.1849,4.1747,4.1659,4.1509,4.139,4.1283,4.1242,4.1262,4.1225,4.1256,4.1236,4.1239,4.1232,4.1272,4.1273,4.1275,4.1276,0,4.2675,4.2624,4.2551,4.2457,4.2393,4.2312,4.2225,4.2193,4.2053,4.1993,4.1898,4.183,4.1692,4.1588,4.1466,4.1385,4.1304,4.1289,4.1281,4.1314,4.1357,4.1329,4.1254,4.1288,4.1287,4.1286,4.1285,4.1285,4.275,4.2715,4.261,4.2528,4.2452,4.2372,4.2323,4.2231,4.2152,4.2036,4.1967,4.1872,4.1753,4.1581,4.1504,4.1421,4.139,4.1382,4.1379,4.1378,4.1386,4.1373,4.1398,4.1397,4.1397,4.1396,4.1396,0,4.2824,4.2751,4.2678,4.2562,4.2496,4.2433,4.2331,4.2277,4.2198,4.2098,4.2014,4.19,4.1797,4.167,4.1556,4.1513,4.1472,4.1486,4.1487,4.1468,4.1422,4.1438,4.1521,4.1521,4.1521,4.1521,4.1521,4.1521,4.2855,4.2792,4.2728,4.2622,4.2545,4.2457,4.2404,4.2326,4.2246,4.2126,4.2043,4.1963,4.1847,4.1724,4.1623,4.1587,4.1547,4.1573,4.1525,4.1483,4.1472,4.1462,4.1476,4.1566,4.1566,4.1577,4.1577,4.1578]},{"header":{"parameterUnit":"m.s-1","parameterCategory":1,"la1":30.2991,"la2":30.254,"lo1":-89.0895,"lo2":-89.0444,"dy":0.0017,"dx":0.0017,"nx":28,"ny":28,"refTime":"2024-05-13T21:00:00:Z","depth":0,"parameterNumber":3,"parameterNumberName":"V-component_of_WINDS"},"data":[0,0,0,0,0,0,0,0,0,0,0,0,0,0,0,0,0,0,0,0,0,0,0,0,0,0,0,0,0,0,0,0,0,0,0,0,0,0,0,0,0,0,0,0,0,0,0,0,0,0,0,0,0,0,0,0,0,0,-11.2759,-11.276,0,-11.2886,-11.2887,-11.2888,-11.2896,-11.2894,-11.2893,-11.2892,-11.3009,-11.3014,-11.3018,0,0,0,0,0,0,0,0,0,0,0,0,0,-11.2508,-11.2513,-11.2759,-11.2761,-11.2762,-11.2885,-11.2887,-11.2889,-11.2896,-11.2894,-11.2893,-11.2891,-11.3008,-11.3013,-11.3019,0,0,0,0,0,0,0,0,0,0,0,0,0,-11.2624,-11.2514,-11.2759,-11.2781,-11.2784,-11.2885,-11.2887,-11.2889,-11.2896,-11.2894,-11.2892,-11.289,-11.3006,-11.3013,-11.3019,-11.3103,0,0,-11.304,-11.3043,0,0,0,0,0,0,0,0,-11.2617,-11.2633,-11.2776,-11.278,-11.2783,-11.2873,-11.2842,-11.296,-11.2897,-11.2853,-11.2892,-11.2889,-11.2965,-11.2975,-11.3003,-11.3108,-11.3113,-11.304,-11.3044,-11.3047,-11.3049,0,0,0,0,0,0,0,-11.2609,-11.2627,-11.2809,-11.2778,-11.2783,-11.2779,-11.2793,-11.2864,-11.2919,-11.2857,-11.2858,-11.2873,-11.2966,-11.2996,-11.3006,-11.3115,-11.304,-11.3046,-11.305,-11.3053,-11.3287,-11.3289,0,0,0,0,0,0,-11.2599,-11.2621,-11.2805,-11.2812,-11.2694,-11.2786,-11.2801,-11.2846,-11.2919,-11.2928,-11.2875,-11.2873,-11.2986,-11.2998,-11.301,-11.3107,-11.3047,-11.3053,-11.3057,-11.3285,-11.3287,-11.329,0,0,0,0,0,0,-11.2593,-11.2615,-11.28,-11.2717,-11.274,-11.2792,-11.2842,-11.285,-11.288,-11.2932,-11.2941,-11.2897,-11.2985,-11.3,-11.3079,-11.3111,-11.3056,-11.3063,-11.3282,-11.3285,-11.3288,-11.3305,0,0,0,0,0,0,-11.2586,-11.2613,-11.265,-11.2718,-11.2745,-11.2871,-11.2845,-11.2854,-11.2893,-11.2892,-11.2955,-11.2963,-11.2984,-11.3069,-11.3085,-11.3119,-11.3068,-11.3279,-11.3283,-11.3287,-11.3302,-11.3309,-11.3314,0,0,0,0,0,-11.2577,-11.2648,-11.2652,-11.2674,-11.2792,-11.2873,-11.2888,-11.2915,-11.2896,-11.2929,-11.2962,-11.2961,-11.3106,-11.3077,-11.3095,-11.3132,-11.3277,-11.3282,-11.3287,-11.3299,-11.3307,-11.3314,0,0,0,0,0,0,-11.258,-11.2658,-11.2662,-11.2759,-11.281,-11.2874,-11.2918,-11.2924,-11.2978,-11.2974,-11.3001,-11.3015,-11.3091,-11.312,-11.3086,-11.3212,-11.3188,-11.3197,-11.3191,-11.3199,-11.3206,-11.3195,-11.3073,0,0,0,0,0,-11.2592,-11.2656,-11.2719,-11.2798,-11.2823,-11.2866,-11.2903,-11.2919,-11.2971,-11.2991,-11.303,-11.3077,-11.3132,-11.3168,-11.3222,-11.3307,-11.3316,-11.334,-11.3347,-11.3351,-11.3358,-11.3397,-11.3407,-11.3306,-11.3306,-11.3306,0,0,-11.2617,-11.2668,-11.2706,-11.2799,-11.2841,-11.29,-11.2884,-11.295,-11.2992,-11.3,-11.3076,-11.3105,-11.3158,-11.3238,-11.3276,-11.3265,-11.3388,-11.3358,-11.3361,-11.3365,-11.3403,-11.3413,-11.3421,-11.3309,-11.3309,-11.3308,0,0,-11.2693,-11.2741,-11.2808,-11.285,-11.2913,-11.294,-11.2956,-11.302,-11.304,-11.3117,-11.3122,-11.3171,-11.3268,-11.3303,-11.3334,-11.3418,-11.3416,-11.3434,-11.3466,-11.3504,-11.3512,-11.3519,-11.3543,-11.3552,-11.3441,-11.3441,-11.3441,0,-11.2715,-11.281,-11.2841,-11.2906,-11.2943,-11.2955,-11.3019,-11.3057,-11.3133,-11.3156,-11.3144,-11.3262,-11.3299,-11.3384,-11.3404,-11.3431,-11.3444,-11.3426,-11.351,-11.3517,-11.3524,-11.3547,-11.3556,-11.3442,-11.3442,-11.3442,-11.3442,0,-11.283,-11.2895,-11.2942,-11.3017,-11.306,-11.3124,-11.3159,-11.3198,-11.3209,-11.3235,-11.3309,-11.3354,-11.3415,-11.3437,-11.3448,-11.3522,-11.3512,-11.3505,-11.348,-11.3534,-11.3556,-11.3566,-11.3444,-11.3444,-11.3444,-11.3443,0,0,-11.2912,-11.3001,-11.3017,-11.3048,-11.3117,-11.3165,-11.3226,-11.3289,-11.3318,-11.3369,-11.3417,-11.3496,-11.3488,-11.3523,-11.3538,-11.3572,-11.3627,-11.3559,-11.3561,-11.3566,-11.3704,-11.3707,-11.3717,-11.3628,-11.363,-11.3632,-11.3698,0,-11.299,-11.3105,-11.3132,-11.3227,-11.3283,-11.3293,-11.3345,-11.3389,-11.3415,-11.3462,-11.3489,-11.3542,-11.3531,-11.3551,-11.3586,-11.3614,-11.3655,-11.361,-11.3667,-11.3669,-11.365,-11.373,-11.3734,-11.3795,-11.3707,-11.3709,-11.371,0,-11.3098,-11.3152,-11.3254,-11.331,-11.3334,-11.3382,-11.3437,-11.3485,-11.3532,-11.3548,-11.3585,-11.3595,-11.3653,-11.3627,-11.3704,-11.3672,-11.3697,-11.3713,-11.3716,-11.372,-11.369,-11.373,-11.3815,-11.3823,-11.3725,-11.3724,-11.3723,0,-11.3139,-11.3238,-11.331,-11.3337,-11.3406,-11.3438,-11.3467,-11.3513,-11.3547,-11.3594,-11.3615,-11.3668,-11.3695,-11.3733,-11.3754,-11.3735,-11.3827,-11.3805,-11.3836,-11.3835,-11.3853,-11.3851,-11.3938,-11.3875,-11.3875,-11.3875,-11.3875,0,-11.3222,-11.3282,-11.3329,-11.3373,-11.3438,-11.3466,-11.3528,-11.3557,-11.3597,-11.3642,-11.3653,-11.3694,-11.3722,-11.3766,-11.3783,-11.3839,-11.3853,-11.3863,-11.3866,-11.386,-11.3858,-11.3874,-11.3869,-11.3877,-11.3877,-11.3876,-11.3876,0,-11.3278,-11.3314,-11.3391,-11.345,-11.3465,-11.351,-11.3557,-11.3597,-11.3622,-11.3678,-11.3693,-11.373,-11.3781,-11.3808,-11.3871,-11.3882,-11.3944,-11.3947,-11.3929,-11.3929,-11.3958,-11.3953,-11.4056,-11.4068,-11.4,-11.4001,-11.4002,0,-11.3327,-11.3373,-11.3436,-11.3469,-11.3499,-11.3552,-11.3586,-11.3614,-11.3648,-11.3703,-11.3734,-11.3787,-11.383,-11.391,-11.394,-11.3986,-11.3987,-11.402,-11.3994,-11.3985,-11.3982,-11.3978,-11.398,-11.4023,-11.4024,-11.4024,-11.4025,0,-11.3407,-11.3421,-11.3472,-11.3528,-11.3569,-11.3614,-11.3658,-11.3682,-11.3716,-11.3753,-11.3807,-11.384,-11.3904,-11.3954,-11.4002,-11.4027,-11.4029,-11.4033,-11.4042,-11.4034,-11.402,-11.4024,-11.3937,-11.403,-11.4029,-11.4029,-11.4029,-11.4029,-11.3457,-11.3497,-11.3546,-11.3601,-11.3637,-11.3677,-11.3715,-11.3745,-11.3792,-11.3848,-11.3861,-11.3916,-11.3956,-11.4022,-11.4048,-11.4088,-11.4081,-11.4095,-11.4097,-11.41,-11.4099,-11.4017,-11.4097,-11.4097,-11.4097,-11.4097,-11.4097,0,-11.3533,-11.3565,-11.3616,-11.3677,-11.3718,-11.3721,-11.3768,-11.3801,-11.3851,-11.3891,-11.3933,-11.3991,-11.4038,-11.4072,-11.4118,-11.4143,-11.4145,-11.4154,-11.415,-11.4155,-11.4105,-11.4091,-11.4151,-11.4151,-11.4151,-11.4151,-11.4151,-11.4151,-11.3577,-11.3642,-11.3662,-11.3742,-11.3773,-11.3829,-11.3855,-11.3889,-11.3921,-11.3987,-11.4027,-11.405,-11.4085,-11.4134,-11.4175,-11.4183,-11.4197,-11.4206,-11.4213,-11.4165,-11.4159,-11.4153,-11.414,-11.421,-11.421,-11.4259,-11.426,-11.426]}]]